Date String (YYYY-MM-DD hh:mm:ss) UTC,Instrument flags,absolute air pressure of the measurement (hPa),sample flow rate (lpm),inlet stack bypass flow (lpm),air temperature of the measurement (°C),ambient temperature measured by the external sensor (°C),aerosol sample conditioner tube jacket temperature (°C),OPC LED temperature (°C),internal box temperature (°C),relative humidity of the measurement (%),span deviation,mass concentration of particles derived from Lorenz-Mie calculation of OPC scattering (μg/m³),mass concentration of particles derived from Lorenz-Mie calculation of OPC scattering (μg/m³),mass concentration of particles derived from Lorenz-Mie calculation of OPC scattering (μg/m³)
DateTimeUTC,F1_M11,P_M11,Q1_M11,Q2_M11,T1_M11,T2_M11,T3_M11,T4_M11,T5_M11,U1_M11,ZSPAN_M11,X0_M11,X2_M11,X1_M11
2023-10-03 00:00:00,SystemResetWarning,0823.8,5.00,000.00,028.1,026.9,000.0,036.5,030.0,24.4,0000.0,0006.16,0002.48,0001.81
2023-10-03 00:01:00,SystemResetWarning,0823.8,5.00,000.00,028.2,027.1,000.0,036.5,030.0,24.4,0000.0,0006.17,0002.45,0001.81
2023-10-03 00:02:00,SystemResetWarning,0823.8,4.99,000.00,028.2,027.2,000.0,036.6,030.1,23.5,0000.0,0006.62,0002.41,0001.80
2023-10-03 00:03:00,SystemResetWarning,0823.8,5.00,000.00,028.3,027.1,000.0,036.6,030.1,22.7,0000.0,0008.30,0002.47,0001.80
2023-10-03 00:04:00,SystemResetWarning,0823.8,4.99,000.00,028.2,025.7,000.0,036.6,030.0,22.1,0000.0,0008.71,0002.48,0001.80
2023-10-03 00:05:00,SystemResetWarning,0823.8,5.02,000.00,028.2,024.7,000.0,036.5,029.8,22.3,0000.0,0008.97,0002.53,0001.81
2023-10-03 00:06:00,SystemResetWarning,0823.7,5.01,000.00,028.1,024.7,000.0,036.5,029.7,22.7,0000.0,0009.09,0002.51,0001.81
2023-10-03 00:07:00,SystemResetWarning,0823.6,5.00,000.00,028.0,025.0,000.0,036.5,029.6,22.7,0000.0,0009.13,0002.58,0001.80
2023-10-03 00:08:00,SystemResetWarning,0823.6,5.00,000.00,028.0,025.3,000.0,036.5,029.7,23.2,0000.0,0008.98,0002.55,0001.79
2023-10-03 00:09:00,SystemResetWarning,0823.6,5.00,000.00,028.0,025.7,000.0,036.5,029.7,23.4,0000.0,0008.99,0002.54,0001.77
2023-10-03 00:10:00,SystemResetWarning,0823.6,5.00,000.00,028.0,026.0,000.0,036.5,029.8,22.8,0000.0,0008.99,0002.53,0001.76
2023-10-03 00:11:00,SystemResetWarning,0823.6,4.99,000.00,028.0,026.3,000.0,036.5,029.8,23.1,0000.0,0010.86,0002.69,0001.78
2023-10-03 00:12:00,SystemResetWarning,0823.7,5.00,000.00,028.1,026.5,000.0,036.5,029.9,23.4,0000.0,0011.50,0002.84,0001.85
2023-10-03 00:13:00,SystemResetWarning,0823.7,5.00,000.00,028.1,026.7,000.0,036.5,029.9,22.9,0000.0,0011.53,0002.99,0001.91
2023-10-03 00:14:00,SystemResetWarning,0823.7,4.99,000.00,028.1,026.8,000.0,036.5,030.0,23.7,0000.0,0010.33,0003.08,0001.97
2023-10-03 00:15:00,SystemResetWarning,0823.8,5.00,000.00,028.2,027.0,000.0,036.6,030.0,24.1,0000.0,0010.47,0003.14,0002.02
2023-10-03 00:16:00,SystemResetWarning,0823.8,5.00,000.00,028.2,027.1,000.0,036.6,030.1,24.3,0000.0,0010.93,0003.15,0002.06
2023-10-03 00:17:00,SystemResetWarning,0823.8,4.99,000.00,028.2,027.0,000.0,036.6,030.1,24.2,0000.0,0010.86,0003.20,0002.11
2023-10-03 00:18:00,SystemResetWarning,0823.8,5.00,000.00,028.2,025.5,000.0,036.6,030.0,23.5,0000.0,0010.02,0003.20,0002.13
2023-10-03 00:19:00,SystemResetWarning,0823.8,5.00,000.00,028.2,024.7,000.0,036.5,029.8,23.3,0000.0,0010.62,0003.23,0002.17
2023-10-03 00:20:00,SystemResetWarning,0823.8,5.01,000.00,028.1,024.7,000.0,036.5,029.7,23.9,0000.0,0010.84,0003.24,0002.20
2023-10-03 00:21:00,SystemResetWarning,0823.8,5.01,000.00,028.0,025.0,000.0,036.5,029.6,23.3,0000.0,0010.86,0003.27,0002.25
2023-10-03 00:22:00,SystemResetWarning,0823.8,4.99,000.00,028.0,025.4,000.0,036.5,029.7,22.9,0000.0,0009.72,0003.29,0002.30
2023-10-03 00:23:00,SystemResetWarning,0823.7,5.00,000.00,028.0,025.7,000.0,036.5,029.7,22.1,0000.0,0008.47,0003.25,0002.28
2023-10-03 00:24:00,SystemResetWarning,0823.8,5.00,000.00,028.0,026.0,000.0,036.5,029.8,22.5,0000.0,0008.47,0003.21,0002.23
2023-10-03 00:25:00,SystemResetWarning,0823.8,5.01,000.00,028.0,026.3,000.0,036.5,029.8,22.6,0000.0,0008.72,0003.16,0002.19
2023-10-03 00:26:00,SystemResetWarning,0823.8,5.01,000.00,028.1,026.5,000.0,036.5,029.9,22.8,0000.0,0008.07,0003.10,0002.14
2023-10-03 00:27:00,SystemResetWarning,0823.8,4.99,000.00,028.1,026.7,000.0,036.5,029.9,22.7,0000.0,0007.17,0003.03,0002.10
2023-10-03 00:28:00,SystemResetWarning,0823.8,4.99,000.00,028.1,026.9,000.0,036.5,030.0,22.9,0000.0,0007.11,0002.94,0002.06
2023-10-03 00:29:00,SystemResetWarning,0823.8,4.99,000.00,028.2,027.0,000.0,036.6,030.0,22.8,0000.0,0007.61,0002.88,0002.04
2023-10-03 00:30:00,SystemResetWarning,0823.8,5.00,000.00,028.2,027.1,000.0,036.6,030.1,22.7,0000.0,0006.71,0002.81,0001.99
2023-10-03 00:31:00,SystemResetWarning,0823.7,5.00,000.00,028.2,026.0,000.0,036.6,030.0,23.0,0000.0,0006.37,0002.82,0001.99
2023-10-03 00:32:00,SystemResetWarning,0823.8,5.02,000.00,028.2,024.6,000.0,036.5,029.9,22.6,0000.0,0006.35,0002.78,0001.95
2023-10-03 00:33:00,SystemResetWarning,0823.8,5.01,000.00,028.1,024.5,000.0,036.5,029.7,22.9,0000.0,0006.14,0002.64,0001.88
2023-10-03 00:34:00,SystemResetWarning,0823.8,5.00,000.00,028.0,024.8,000.0,036.5,029.6,23.1,0000.0,0005.82,0002.50,0001.81
2023-10-03 00:35:00,SystemResetWarning,0823.8,5.00,000.00,028.0,025.2,000.0,036.5,029.6,23.1,0000.0,0005.70,0002.43,0001.76
2023-10-03 00:36:00,SystemResetWarning,0823.8,4.99,000.00,028.0,025.6,000.0,036.5,029.7,23.1,0000.0,0004.83,0002.34,0001.71
2023-10-03 00:37:00,SystemResetWarning,0823.8,5.00,000.00,028.0,025.9,000.0,036.5,029.7,23.0,0000.0,0004.61,0002.24,0001.65
2023-10-03 00:38:00,SystemResetWarning,0823.8,5.01,000.00,028.0,026.2,000.0,036.5,029.8,22.6,0000.0,0004.61,0002.20,0001.58
2023-10-03 00:39:00,SystemResetWarning,0823.8,4.99,000.00,028.1,026.5,000.0,036.5,029.9,22.7,0000.0,0004.25,0002.07,0001.49
2023-10-03 00:40:00,SystemResetWarning,0823.8,5.00,000.00,028.1,026.7,000.0,036.5,029.9,22.8,0000.0,0003.19,0001.94,0001.37
2023-10-03 00:41:00,SystemResetWarning,0823.8,5.00,000.00,028.1,026.9,000.0,036.5,030.0,22.7,0000.0,0002.91,0001.78,0001.26
2023-10-03 00:42:00,SystemResetWarning,0823.9,5.00,000.00,028.2,027.1,000.0,036.6,030.0,22.7,0000.0,0002.65,0001.62,0001.13
2023-10-03 00:43:00,SystemResetWarning,0823.9,5.00,000.00,028.2,027.2,000.0,036.6,030.1,22.4,0000.0,0002.54,0001.47,0001.01
2023-10-03 00:44:00,SystemResetWarning,0823.8,5.00,000.00,028.3,027.2,000.0,036.6,030.1,23.0,0000.0,0002.45,0001.37,0000.91
2023-10-03 00:45:00,SystemResetWarning,0823.9,4.98,000.00,028.3,025.8,000.0,036.6,030.0,23.1,0000.0,0002.31,0001.26,0000.82
2023-10-03 00:46:00,SystemResetWarning,0823.9,5.00,000.00,028.2,024.7,000.0,036.5,029.8,23.1,0000.0,0002.13,0001.15,0000.75
2023-10-03 00:47:00,SystemResetWarning,0823.9,5.01,000.00,028.1,024.6,000.0,036.5,029.7,22.7,0000.0,0002.07,0001.06,0000.68
2023-10-03 00:48:00,SystemResetWarning,0823.8,5.01,000.00,028.0,024.9,000.0,036.5,029.6,22.5,0000.0,0002.07,0001.03,0000.63
2023-10-03 00:49:00,SystemResetWarning,0823.8,5.00,000.00,028.0,025.3,000.0,036.5,029.6,21.8,0000.0,0001.90,0000.95,0000.59
2023-10-03 00:50:00,SystemResetWarning,0823.9,5.00,000.00,028.0,025.7,000.0,036.5,029.7,21.6,0000.0,0001.82,0000.93,0000.59
2023-10-03 00:51:00,SystemResetWarning,0824.0,5.00,000.00,028.0,026.0,000.0,036.5,029.8,21.7,0000.0,0001.91,0000.97,0000.61
2023-10-03 00:52:00,SystemResetWarning,0823.9,5.00,000.00,028.0,026.3,000.0,036.5,029.8,22.4,0000.0,0002.05,0001.02,0000.63
2023-10-03 00:53:00,SystemResetWarning,0823.9,5.00,000.00,028.1,026.6,000.0,036.5,029.9,21.7,0000.0,0001.99,0001.01,0000.65
2023-10-03 00:54:00,SystemResetWarning,0823.9,5.00,000.00,028.1,026.8,000.0,036.5,029.9,21.1,0000.0,0001.88,0001.03,0000.68
2023-10-03 00:55:00,SystemResetWarning,0824.0,5.00,000.00,028.2,027.0,000.0,036.5,030.0,20.1,0000.0,0001.81,0001.03,0000.69
2023-10-03 00:56:00,SystemResetWarning,0824.0,5.00,000.00,028.2,027.1,000.0,036.6,030.0,21.4,0000.0,0001.90,0001.08,0000.70
2023-10-03 00:57:00,SystemResetWarning,0823.9,5.00,000.00,028.2,027.2,000.0,036.6,030.1,20.5,0000.0,0001.87,0001.08,0000.71
2023-10-03 00:58:00,SystemResetWarning,0823.9,5.00,000.00,028.3,027.1,000.0,036.6,030.1,20.7,0000.0,0001.84,0001.08,0000.72
2023-10-03 00:59:00,SystemResetWarning,0824.0,4.98,000.00,028.3,025.6,000.0,036.6,030.0,21.0,0000.0,0001.86,0001.05,0000.71
